Wind_Speed
7 8 8 7 8 9 10 11 12 13 14 16 18 20 22 24 25 27 29 30 31 32 33 34 34 35 35 35 34 34 35 36 37 37 37 37 36 35 35 34 33 32 30 30
8 8 7 8 9 10 11 12 13 14 15 17 19 21 23 25 26 28 30 31 33 33 34 34 35 35 35 35 34 35 36 37 37 37 37 36 35 34 33 32 31 30 29 28
9 9 9 9 10 11 11 12 13 15 16 17 19 22 23 26 28 29 31 32 33 34 35 35 35 36 35 35 35 35 37 37 38 37 36 35 34 33 32 31 30 29 27 26
11 11 10 10 11 12 12 13 14 15 16 18 20 22 24 26 28 30 32 32 33 34 35 35 36 36 36 36 35 36 37 38 38 37 36 35 34 33 32 30 29 28 26 25
11 11 10 11 12 13 13 14 15 16 17 18 20 23 24 26 28 30 32 33 34 34 36 36 36 36 36 36 36 36 37 38 37 36 36 35 34 33 31 30 28 27 25 24
11 11 11 11 12 13 13 13 15 16 17 19 21 23 24 26 29 30 32 33 34 35 36 36 36 36 37 37 36 36 37 37 37 36 36 35 34 32 31 30 29 26 25 23
11 11 11 12 13 13 14 14 15 16 18 20 22 23 25 27 28 31 32 33 34 35 36 36 36 37 37 37 36 36 37 37 36 36 36 35 34 32 31 30 28 26 24 23
11 12 13 13 14 14 15 15 16 17 19 20 22 23 25 26 28 30 31 32 34 35 36 36 36 37 36 37 37 36 36 36 36 36 35 34 33 32 31 30 28 25 24 23
12 13 13 14 14 15 16 17 17 18 19 20 21 23 24 26 28 30 31 32 34 35 36 36 36 36 36 37 37 37 36 36 35 35 35 34 33 32 31 30 28 26 24 23
13 13 14 15 15 16 17 18 18 19 19 20 22 23 24 26 28 29 30 32 33 35 35 36 36 36 36 37 37 36 36 35 35 34 34 34 33 32 31 29 28 26 24 23
14 14 15 15 16 17 17 18 19 19 20 21 22 23 24 26 27 29 30 32 33 35 35 36 36 36 37 37 37 36 36 35 34 33 33 32 32 32 31 30 29 27 25 23
16 16 16 16 17 17 18 19 19 20 20 21 22 23 25 26 28 29 30 32 33 34 35 35 36 36 36 37 37 36 36 35 34 33 32 32 31 31 31 30 29 27 25 23
18 18 18 17 18 18 19 20 20 20 21 22 23 24 25 26 27 28 30 31 33 34 35 35 36 36 36 36 36 36 36 35 34 33 31 31 30 30 30 30 29 27 26 24
19 19 19 19 19 20 20 20 21 21 22 23 23 24 25 26 27 28 30 31 32 33 34 35 36 36 36 36 36 36 35 35 33 32 31 30 30 29 29 28 28 27 26 24
21 21 21 21 21 21 21 21 22 22 23 23 24 25 26 26 27 28 30 31 32 34 34 35 36 36 36 36 35 35 35 34 33 32 31 30 29 29 29 28 27 26 26 24
22 22 22 22 22 22 22 23 23 24 24 24 25 25 26 27 28 29 30 31 33 34 35 36 37 37 37 36 35 34 34 33 32 32 31 30 29 28 28 27 26 25 25 24
24 24 25 25 24 24 24 24 25 25 25 25 25 26 27 27 29 30 31 32 33 35 36 37 37 37 36 36 35 34 33 33 32 31 31 29 28 28 27 26 25 25 24 24
26 26 27 27 27 28 27 26 26 26 26 26 27 28 28 29 30 32 32 34 35 35 36 37 37 37 36 36 35 34 34 33 31 30 30 29 27 26 26 26 25 24 24 23
28 28 28 28 28 29 28 28 28 28 28 28 29 29 30 31 32 33 34 35 36 36 37 37 37 37 37 36 35 34 33 32 31 30 29 28 27 25 25 25 24 23 23 23
30 30 30 30 30 30 30 31 32 31 32 32 32 32 32 33 34 35 36 37 37 37 38 37 37 37 36 35 34 33 32 31 30 29 28 27 26 25 24 23 22 21 21 22
32 32 32 33 33 33 34 35 35 35 35 34 34 34 35 36 37 37 37 38 38 38 38 38 37 37 36 35 34 33 32 30 30 29 27 26 25 23 23 22 21 20 19 20
34 34 34 35 36 37 38 39 40 39 39 38 38 38 38 39 39 40 40 40 40 40 39 38 38 37 36 35 34 33 31 30 29 28 27 26 24 23 22 21 21 20 19 18
37 37 38 40 41 42 43 44 44 43 42 42 42 42 43 43 42 43 43 43 43 42 41 39 39 37 36 34 33 32 31 29 28 28 27 25 24 22 21 20 20 20 18 17
41 42 43 44 45 45 46 46 45 45 45 46 45 45 45 45 45 44 44 43 43 42 41 39 38 37 36 34 33 31 30 28 27 27 26 24 23 21 20 19 19 18 17 15
45 45 46 47 48 49 49 49 49 49 48 48 48 47 47 47 47 46 46 45 44 43 41 39 38 37 35 34 32 31 29 27 26 26 25 23 22 21 20 19 18 17 16 15
48 49 49 50 50 50 50 50 51 51 51 50 50 50 50 49 48 47 46 45 44 42 41 39 37 36 34 33 31 30 29 27 26 25 24 22 21 20 20 19 17 16 15 14
51 52 52 52 52 52 52 52 53 53 53 53 52 52 51 49 48 47 46 45 43 41 40 39 37 36 35 33 31 30 28 27 26 25 23 22 21 20 19 18 16 16 15 14
Wind_Direction
286 289 286 291 299 306 316 323 329 335 338 341 343 345 346 347 348 349 348 348 347 346 345 344 344 343 342 340 339 337 336 335 333 332 329 327 325 322 319 316 313 309 304 298
288 289 286 291 299 303 309 318 325 331 336 339 341 344 345 346 348 348 348 348 347 346 346 345 344 344 343 342 341 340 339 338 336 335 333 331 329 326 324 320 317 314 310 304
292 293 293 294 298 301 307 315 322 327 333 336 340 342 344 345 347 348 348 347 347 346 346 345 345 345 344 343 342 342 341 341 340 339 337 335 333 331 329 325 322 318 314 310
293 297 295 297 296 301 306 312 319 324 329 333 338 341 343 344 346 347 348 347 347 347 347 347 346 346 345 344 343 343 343 343 343 342 341 338 336 334 333 330 326 323 319 314
293 297 297 294 296 301 307 313 316 322 328 333 336 339 341 343 345 347 347 347 347 348 348 347 347 347 346 346 345 345 345 345 345 344 343 342 340 338 337 335 331 328 324 320
290 298 299 296 299 304 309 313 316 321 326 331 334 336 339 342 344 346 346 347 348 348 348 348 347 347 348 348 347 347 347 347 347 346 345 345 344 342 340 338 336 333 329 327
288 294 299 301 305 308 312 317 318 321 326 329 332 335 337 340 343 344 346 347 348 348 348 348 348 348 348 349 349 349 349 348 348 348 348 347 347 346 345 343 342 340 337 334
288 293 297 300 306 310 314 317 320 323 326 328 331 333 336 338 341 343 345 346 347 348 348 349 349 349 349 350 350 350 350 350 350 350 351 350 350 349 349 348 348 347 344 341
292 296 297 301 308 312 316 319 321 323 325 328 330 333 335 338 341 343 344 345 346 347 348 349 349 350 350 350 350 350 350 351 351 352 353 353 353 353 353 353 353 352 351 349
288 291 294 299 307 310 313 315 318 322 324 327 329 332 334 337 340 342 343 344 345 346 347 348 349 349 350 350 350 351 351 351 352 353 354 355 356 356 356 356 356 356 355 355
282 287 290 295 301 305 308 310 314 318 322 325 328 330 333 336 339 341 342 343 344 346 347 347 348 349 350 350 350 350 351 351 352 353 354 356 357 358 358 359 359 359 358 358
280 284 288 292 297 301 305 307 310 315 319 322 324 328 332 335 337 339 340 341 343 345 347 348 349 349 349 349 350 350 351 351 352 353 354 355 357 358 359 0 1 2 2 1
278 282 285 290 294 298 301 303 308 312 316 318 322 326 329 332 334 336 338 339 341 343 345 347 348 349 349 349 349 350 350 351 352 353 353 354 356 357 359 360 1 2 3 2
279 282 285 288 291 294 297 300 304 309 312 316 319 323 326 329 331 334 336 338 340 341 343 345 346 347 347 347 348 348 349 351 351 352 352 352 353 355 357 358 360 1 2 3
277 281 283 286 289 291 294 297 301 306 310 314 316 319 323 326 329 331 334 336 338 340 341 343 344 345 345 346 346 346 348 349 350 351 351 351 352 353 354 356 358 0 2 3
275 278 280 281 284 288 291 295 299 303 306 309 313 317 320 322 325 328 331 335 336 337 338 340 341 342 343 343 343 344 345 347 348 349 350 350 350 351 353 355 357 359 0 2
273 275 277 279 282 285 288 292 297 300 303 306 310 313 316 318 321 324 327 330 332 334 335 336 338 339 340 341 341 341 342 343 344 346 347 347 347 348 351 353 354 355 357 359
272 274 276 277 280 283 285 289 293 296 298 302 307 309 311 315 319 321 323 325 328 330 332 333 335 336 337 337 338 338 338 339 340 342 343 344 345 346 347 350 352 353 354 356
272 274 276 277 280 282 283 286 289 293 295 299 303 305 307 310 314 316 318 321 324 326 327 329 331 332 333 334 334 335 336 336 337 339 340 342 343 343 344 347 350 352 353 354
272 273 275 277 278 279 281 283 286 289 291 295 298 300 302 305 308 311 314 316 319 321 323 325 326 327 329 330 331 332 334 334 335 336 338 340 341 341 343 345 348 350 351 353
273 275 275 276 277 278 279 281 282 284 287 291 294 296 297 300 304 307 310 312 314 316 318 320 321 322 324 326 327 328 330 330 331 333 334 336 338 338 339 342 344 345 348 351
272 273 272 273 273 275 277 278 280 282 284 286 290 293 295 297 300 303 305 307 310 312 314 315 315 317 319 322 324 324 325 326 327 329 330 332 333 333 334 337 340 341 343 346
270 270 271 273 274 276 277 278 279 281 283 286 290 292 294 296 297 299 302 304 306 308 310 311 311 312 314 316 318 320 321 323 323 325 326 328 329 330 330 332 335 337 340 342
272 272 273 274 275 277 278 280 282 283 285 288 290 291 292 294 296 298 299 300 302 304 305 306 306 307 308 310 312 314 316 317 319 319 321 323 325 326 327 329 331 334 336 337
275 276 276 277 277 278 279 281 282 284 285 287 288 289 290 291 293 295 295 296 297 299 300 301 302 303 303 304 306 308 310 312 314 315 317 318 319 321 323 324 326 327 330 331
277 278 278 279 279 279 280 281 282 283 284 285 285 287 288 290 291 292 293 293 294 294 295 296 297 297 298 299 301 302 304 306 308 310 311 313 313 315 317 318 319 321 322 325
279 280 280 281 282 282 282 283 283 284 285 285 286 287 287 288 289 289 290 290 290 290 290 291 292 292 292 293 295 297 299 300 302 304 305 307 307 308 311 312 313 315 317 319
Height
5850 5850 5849 5848 5847 5845 5844 5843 5841 5839 5836 5833 5830 5826 5822 5818 5813 5808 5803 5797 5791 5786 5779 5773 5767 5760 5753 5747 5740 5734 5727 5720 5713 5706 5699 5691 5684 5678 5671 5665 5659 5654 5649 5645
5848 5847 5847 5846 5845 5843 5842 5840 5839 5836 5834 5831 5827 5823 5819 5815 5810 5805 5799 5794 5788 5782 5775 5769 5762 5756 5749 5742 5735 5729 5722 5715 5707 5699 5692 5684 5677 5670 5663 5657 5651 5645 5640 5636
5846 5845 5844 5844 5843 5841 5840 5838 5836 5834 5832 5828 5824 5820 5816 5812 5807 5802 5796 5790 5784 5778 5772 5765 5758 5751 5745 5738 5731 5724 5717 5709 5701 5693 5685 5678 5670 5663 5656 5649 5643 5638 5632 5628
5843 5843 5842 5843 5840 5838 5837 5835 5833 5831 5828 5825 5822 5818 5813 5809 5804 5798 5793 5787 5781 5775 5768 5761 5754 5747 5740 5733 5726 5719 5712 5704 5696 5688 5680 5672 5665 5657 5650 5643 5637 5631 5626 5621
5841 5840 5839 5839 5837 5835 5834 5832 5830 5828 5825 5822 5818 5815 5811 5806 5801 5795 5790 5784 5778 5771 5765 5758 5751 5744 5736 5729 5722 5715 5707 5699 5691 5683 5675 5667 5660 5652 5645 5638 5632 5626 5620 5615
5838 5837 5836 5837 5834 5832 5832 5830 5827 5824 5822 5819 5815 5812 5808 5803 5798 5792 5787 5781 5775 5768 5761 5754 5747 5740 5733 5725 5718 5711 5703 5695 5687 5679 5671 5663 5655 5648 5641 5634 5627 5621 5615 5610
5836 5834 5834 5833 5831 5830 5829 5827 5824 5821 5818 5815 5812 5809 5805 5799 5794 5789 5784 5778 5771 5765 5758 5751 5744 5737 5729 5722 5715 5707 5700 5692 5684 5676 5668 5660 5652 5644 5637 5630 5623 5617 5611 5606
5833 5832 5833 5829 5827 5826 5825 5822 5820 5817 5814 5812 5808 5805 5800 5796 5791 5786 5780 5775 5768 5762 5755 5748 5741 5734 5726 5719 5712 5704 5697 5689 5681 5673 5665 5657 5649 5642 5634 5627 5621 5614 5609 5603
5830 5830 5828 5826 5824 5822 5820 5818 5816 5813 5811 5808 5805 5801 5797 5792 5788 5783 5777 5771 5765 5759 5752 5745 5738 5731 5724 5717 5709 5702 5694 5687 5679 5671 5663 5655 5647 5640 5633 5626 5619 5613 5607 5601
5826 5825 5824 5822 5820 5819 5816 5814 5812 5810 5807 5804 5801 5797 5793 5789 5784 5779 5774 5768 5762 5756 5749 5742 5736 5729 5722 5714 5707 5699 5692 5684 5677 5669 5661 5654 5646 5639 5632 5625 5618 5612 5606 5600
5821 5821 5820 5819 5817 5815 5813 5811 5809 5806 5803 5800 5797 5794 5790 5785 5781 5776 5770 5765 5759 5753 5746 5740 5733 5726 5719 5712 5705 5697 5690 5682 5675 5668 5660 5653 5646 5639 5632 5625 5618 5612 5606 5600
5817 5816 5815 5814 5813 5811 5809 5807 5805 5802 5799 5796 5793 5789 5785 5781 5777 5772 5767 5762 5756 5750 5744 5737 5730 5724 5717 5710 5703 5696 5688 5681 5674 5666 5659 5652 5645 5638 5631 5625 5618 5612 5606 5600
5812 5811 5810 5809 5808 5806 5804 5802 5800 5798 5795 5792 5789 5785 5781 5777 5773 5768 5764 5758 5753 5747 5741 5734 5728 5721 5714 5708 5701 5694 5687 5680 5672 5665 5658 5652 5645 5638 5632 5625 5619 5612 5606 5601
5806 5806 5805 5804 5803 5801 5799 5797 5795 5793 5790 5787 5784 5780 5777 5773 5769 5764 5760 5755 5749 5743 5737 5731 5725 5718 5712 5705 5698 5692 5685 5678 5671 5664 5658 5651 5645 5638 5632 5626 5620 5613 5607 5601
5801 5800 5799 5798 5797 5795 5794 5792 5790 5787 5785 5782 5779 5775 5772 5768 5764 5760 5755 5750 5745 5740 5734 5728 5722 5715 5709 5702 5696 5689 5683 5676 5670 5663 5657 5650 5644 5638 5632 5626 5620 5614 5608 5602
5795 5794 5793 5792 5790 5789 5787 5786 5784 5781 5778 5776 5773 5770 5767 5763 5759 5755 5751 5746 5741 5736 5730 5724 5718 5712 5706 5699 5693 5687 5681 5674 5668 5662 5655 5649 5644 5638 5632 5626 5620 5614 5609 5603
5788 5787 5786 5785 5784 5782 5781 5779 5777 5775 5772 5769 5767 5764 5761 5757 5754 5750 5745 5741 5736 5731 5725 5720 5714 5708 5702 5696 5690 5684 5678 5672 5666 5660 5654 5648 5642 5637 5631 5625 5620 5615 5609 5604
5780 5780 5779 5778 5777 5775 5774 5772 5770 5768 5765 5763 5760 5757 5754 5751 5747 5743 5739 5735 5730 5725 5720 5715 5709 5704 5698 5692 5686 5680 5675 5669 5663 5657 5652 5646 5641 5636 5630 5625 5619 5614 5609 5604
5773 5772 5771 5770 5769 5767 5766 5764 5762 5760 5758 5755 5753 5750 5747 5744 5740 5736 5732 5728 5724 5719 5714 5709 5704 5699 5693 5688 5682 5676 5671 5666 5660 5655 5649 5644 5639 5634 5629 5624 5618 5614 5609 5604
5764 5764 5763 5761 5760 5759 5757 5756 5753 5751 5749 5747 5744 5742 5739 5736 5732 5729 5725 5721 5717 5712 5708 5703 5698 5693 5688 5683 5677 5672 5667 5662 5657 5652 5647 5642 5637 5632 5627 5622 5618 5613 5609 5604
5755 5754 5753 5752 5751 5749 5748 5746 5743 5741 5739 5737 5735 5732 5730 5727 5724 5720 5717 5713 5709 5705 5700 5696 5691 5687 5682 5678 5672 5667 5662 5658 5653 5648 5644 5639 5635 5630 5626 5621 5617 5612 5608 5604
5744 5743 5742 5741 5740 5738 5736 5734 5732 5731 5729 5727 5724 5722 5720 5717 5714 5711 5708 5704 5700 5696 5692 5688 5684 5680 5676 5671 5667 5662 5657 5653 5649 5644 5640 5636 5632 5628 5623 5619 5615 5611 5607 5603
5732 5731 5730 5729 5727 5726 5724 5722 5720 5718 5717 5715 5713 5711 5708 5706 5703 5701 5698 5694 5690 5687 5683 5679 5676 5672 5668 5664 5660 5656 5652 5648 5644 5640 5636 5632 5628 5624 5620 5617 5613 5609 5606 5602
5719 5719 5718 5716 5714 5713 5711 5709 5708 5706 5705 5703 5701 5699 5696 5694 5692 5689 5686 5683 5679 5676 5673 5670 5667 5663 5660 5657 5653 5650 5646 5642 5638 5635 5631 5628 5624 5621 5617 5614 5611 5607 5604 5601
5706 5705 5704 5702 5700 5699 5697 5696 5694 5693 5691 5690 5687 5685 5683 5681 5679 5677 5674 5671 5668 5665 5662 5660 5657 5654 5651 5648 5645 5642 5639 5636 5633 5630 5626 5623 5620 5617 5614 5611 5608 5605 5602 5599
5691 5690 5689 5687 5686 5684 5683 5681 5680 5678 5677 5675 5674 5671 5669 5667 5664 5662 5660 5658 5655 5653 5651 5649 5646 5644 5641 5639 5637 5634 5632 5629 5626 5624 5621 5618 5615 5613 5610 5607 5604 5602 5599 5597
5675 5674 5672 5671 5670 5668 5667 5665 5664 5662 5661 5659 5658 5656 5654 5652 5649 5648 5646 5644 5642 5640 5638 5637 5635 5633 5632 5630 5628 5626 5624 5622 5619 5617 5615 5612 5610 5608 5605 5603 5600 5598 5596 5594